Location: El Mouella
(16.4949°N, 9.1594°W)
Time: 20:11:54
(UTC+00:00)

Hubble Space Telescope - Pass Details

Date: 02 June 2020
Orbit: 536 x 540 km, 28.5° (Epoch: 05 July)

Event Time Altitude Azimuth Distance (km) Brightness Sun altitude
Rises 21:14:54 0° 295° (WNW) 2,674 5.5 -27.5°
Reaches altitude 10° 21:17:10 10° 295° (WNW) 1,783 4.3 -28.0°
Enters shadow 21:19:37 35° 295° (WNW) 874 2.3 -28.4°
